Regional Weather Roundup
Issued by NWS Goodland, KS

Home | Current Version | Previous Version | Graphics & Text | Print | Product List | Glossary On
Versions: 1 2 3 4 5 6 7 8 9 10 11 12 13 14 15 16 17 18 19 20 21 22 23 24 25 26 27 28 29 30 31 32 33 34 35 36 37 38 39 40 41 42 43 44 45 46 47 48 49 50
000
ASUS43 KGLD 221459
RWRGLD

GOODLAND FORECAST AREA HOURLY WEATHER ROUNDUP
NATIONAL WEATHER SERVICE GOODLAND KS
900 AM MDT WED MAR 22 2017

...OFFICIAL OBSERVATIONS...

CITY           SKY/WX    TMP DP  RH WIND       PRES   REMARKS
GOODLAND KS    CLOUDY    40  31  70 S15       30.19S
HILL CITY KS   CLOUDY    41  26  55 E8        30.28F
IMPERIAL NEB   PTSUNNY   39  26  59 SE18G26   30.18F
MCCOOK NEB     CLOUDY    38  25  59 SE15      30.25F
AKRON CO       CLOUDY    42  28  57 S24G31    30.07F
BURLINGTON CO  CLOUDY    41  33  73 S21G29    30.15F
LIMON CO       CLOUDY    39  31  72 S16       30.12F
$$

...UNOFFICIAL OBSERVATIONS...

CITY           SKY/WX    TMP DP  RH WIND       PRES   REMARKS
LENORA KS        N/A     39  32  76 E10         N/A
NORTON KS      CLOUDY    37  19  48 E12       30.26F
SHARON SPRINGS   N/A     41  34  75 SE14        N/A
TRENTON NEB      N/A     38  32  79 S9          N/A
KIT CARSON CO    N/A     41  29  61 MISG        N/A
YUMA CO        CLOUDY    39  32  75 SE21G26   30.11F
$$




USA.gov is the U.S. government's official web portal to all federal, state and local government web resources and services.